KT4FD Weather Reports


time (UTC)temp
C
wind
direction
speed
KPH
gust
KPH
rain 1hr
cm
rain 24hr
cm
rain mn
cm
humidity
%
barometer
mb
20260502230003 15 333 14.5 29.0 0.00 0.00 0.00 38 1015.9
20260502225003 15 341 19.3 35.4 0.00 0.00 0.00 38 1016.0
20260502224003 15 340 16.1 32.2 0.00 0.00 0.00 38 1016.0
20260502223004 16 312 8.0 22.5 0.00 0.00 0.00 41 1015.8
20260502222004 16 348 9.7 25.7 0.00 0.00 0.00 42 1015.8
20260502221003 16 1 12.9 29.0 0.00 0.00 0.00 40 1015.7
20260502220003 16 303 12.9 24.1 0.00 0.00 0.00 37 1015.4
20260502215003 16 339 12.9 27.4 0.00 0.00 0.00 39 1015.3
20260502214003 16 321 11.3 27.4 0.00 0.00 0.00 39 1015.1
20260502213003 16 15 11.3 25.7 0.00 0.00 0.00 38 1014.9
20260502212004 17 342 11.3 29.0 0.00 0.00 0.00 41 1014.8
20260502191003 18 303 11.3 24.1 0.00 0.00 0.00 48 1014.4
20260502190004 18 340 8.0 22.5 0.00 0.00 0.00 50 1014.2
20260502185003 18 222 8.0 22.5 0.00 0.00 0.00 51 1014.2
20260502184003 17 342 4.8 16.1 0.00 0.00 0.00 55 1014.2
20260502183004 17 305 9.7 16.1 0.00 0.00 0.00 56 1014.4
20260502182004 17 327 1.6 14.5 0.00 0.00 0.00 55 1014.4
20260502181003 17 337 3.2 12.9 0.00 0.00 0.00 58 1014.4
20260502151004 16 350 1.6 4.8 0.00 0.00 0.00 64 1015.2
20260502115003 11 228 0.0 0.0 0.00 0.00 0.00 75 1014.3
20260502114003 11 262 0.0 3.2 0.00 0.00 0.00 75 1014.0
20260502113004 11 262 0.0 0.0 0.00 0.00 0.00 78 1014.2
20260502112004 11 262 0.0 0.0 0.00 0.00 0.00 77 1014.4
20260502111003 11 262 0.0 0.0 0.00 0.00 0.00 77 1014.3
20260502110004 11 262 1.6 4.8 0.00 0.00 0.00 77 1014.1
20260502071003 12 329 0.0 4.8 0.00 0.00 0.00 71 1014.3
20260502070004 12 329 0.0 4.8 0.00 0.00 0.00 72 1014.5
20260502065004 13 329 3.2 8.0 0.00 0.00 0.00 71 1014.6
20260502053004 13 318 4.8 8.0 0.00 0.00 0.00 66 1015.0
20260502052004 13 342 4.8 14.5 0.00 0.00 0.00 65 1014.9
20260502051003 13 355 3.2 4.8 0.00 0.00 0.00 65 1014.9
20260502050004 14 348 1.6 8.0 0.00 0.00 0.00 66 1015.0
20260502045003 14 348 4.8 11.3 0.00 0.00 0.00 63 1015.0
20260502044003 14 11 3.2 11.3 0.00 0.00 0.00 63 1015.3
20260502032003 12 298 0.0 0.0 0.00 0.00 0.00 77 1016.0
20260502031003 13 298 0.0 0.0 0.00 0.00 0.00 76 1016.1
20260502030004 13 298 0.0 0.0 0.00 0.00 0.00 75 1016.0
20260502025004 13 298 0.0 0.0 0.00 0.00 0.00 75 1016.0
20260502024004 13 298 0.0 3.2 0.00 0.00 0.00 72 1015.9
20260502023004 13 298 1.6 4.8 0.00 0.00 0.00 73 1016.0
20260502022004 13 298 1.6 11.3 0.00 0.00 0.00 75 1016.1
20260502021004 13 317 3.2 4.8 0.00 0.00 0.00 75 1016.0
20260502020004 13 317 3.2 4.8 0.00 0.00 0.00 74 1015.9
20260502015003 13 317 0.0 1.6 0.00 0.00 0.00 74 1015.7
20260502014004 13 317 1.6 3.2 0.00 0.00 0.00 74 1015.4
20260502013003 13 317 1.6 4.8 0.00 0.00 0.00 74 1015.4
20260502012004 13 317 1.6 4.8 0.00 0.00 0.00 73 1015.5
20260502011003 14 317 3.2 4.8 0.00 0.00 0.00 72 1015.3
20260502010002 14 317 1.6 4.8 0.00 0.00 0.00 71 1015.1
20260502005002 14 317 1.6 4.8 0.00 0.00 0.00 71 1015.1
20260502004003 14 317 1.6 4.8 0.00 0.00 0.00 71 1015.1
20260501233002 15 287 4.8 11.3 0.00 0.00 0.00 70 1014.9
20260501232002 15 261 4.8 11.3 0.00 0.00 0.00 70 1014.6
20260501231002 16 269 6.4 11.3 0.00 0.00 0.00 70 1014.6